Regional Weather Roundup
Issued by NWS Bismarck, ND

Home | Current Version | Previous Version | Text Only | Print | Product List | Glossary On
Versions: 1 2 3 4 5 6 7 8 9 10 11 12 13 14 15 16 17 18 19 20 21 22 23 24 25 26 27 28 29 30 31 32 33 34 35 36 37 38 39 40 41 42 43 44 45 46 47 48 49 50
000
ASUS43 KBIS 211710
RWRBIS

NWR BROADCAST TEXT
NATIONAL WEATHER SERVICE BISMARCK ND
1100 AM CST TUE NOV 21 2017

NOTE: "FAIR" INDICATES FEW OR NO CLOUDS BELOW 12,000 FEET WITH NO
SIGNIFICANT WEATHER AND/OR OBSTRUCTIONS TO VISIBILITY.


CITY           SKY/WX    TMP DP  RH WIND       PRES   REMARKS
WILLISTON      CLOUDY     6  -2  69 W10       30.41R WCI  -9
MINOT          CLOUDY    10   2  69 NW15G24   30.35R WCI  -7
MINOT AFB      CLOUDY    10   2  70 NW16G22   30.34R WCI  -7
BISMARCK       FLURRIES  19   7  59 NW20G28   30.40R WCI   3
DICKINSON      CLOUDY    11   0  61 W16       30.32S WCI  -6
GARRISON         N/A     10   2  69 NW16      30.36R WCI  -7
HETTINGER ARPT CLOUDY    13   0  56 NW15      30.35R WCI  -3
JAMESTOWN      PTSUNNY   16   6  65 NW22      30.32R WCI  -2
CARRINGTON     PTSUNNY   14   7  73 NW23G30   30.35R WCI  -5
HAZEN          FLURRIES  10   5  79 W10G21    30.40S WCI  -3
LINTON         FLURRIES  16   3  57 NW17      30.38R WCI   0
MANDAN         FAIR      10   3  72 NW16G23   30.38R WCI  -7
OAKES            N/A     18   7  62 NW23      30.31R WCI   0
RUGBY          PTSUNNY   12   7  79 NW15G22   30.32R WCI  -4
STANLEY        FAIR       9   3  78 NW12G17   30.34S WCI  -6
TIOGA          FAIR       7   0  72 NW15G22   30.35S WCI -11
WATFORD CITY   CLOUDY     7  -2  66 W12       30.39R WCI  -9
$$

CITY           SKY/WX    TMP DP  RH WIND       PRES   REMARKS
GRAND FORKS    MOSUNNY   18  10  71 NW16      30.27R WCI   3
GRAND FORKS AF SUNNY     17   8  67 N15       30.27R WCI   2
DEVILS LAKE    MOSUNNY   14   8  77 W18       30.30R WCI  -3
FARGO          MOSUNNY   20   8  60 N21G32    30.27R WCI   4
CANDO          CLOUDY    16   7  67 NW16G22   30.33R WCI   0
CAVALIER       CLOUDY    18   9  68 NW15G21   30.26R WCI   3
GRAFTON        FAIR      16  10  79 NW15      30.30R WCI   1
GWINNER          N/A     19   7  58 NW22      30.29R WCI   3
LANGDON        FAIR      14   9  79 NW16G24   30.24R WCI  -2
ROLLA          FAIR      12   7  79 NW17      30.28R WCI  -5
WALHALLA       FAIR      18   9  68 NW17      30.27R WCI   2
$$

CITY           SKY/WX    TMP DP  RH WIND       PRES   REMARKS
ABERDEEN       SUNNY     20   6  55 NW18      30.33R WCI   5
MOBRIDGE       SUNNY     17   4  56 NW20G30   30.35R WCI   1
BUFFALO          N/A     19   4  51 NW14      30.26R WCI   6
RAPID CITY     CLOUDY    26  18  71 NE7       30.33R WCI  18
GLASGOW        CLOUDY     7  -3  64 CALM      30.38S
SIDNEY         SUNNY      9  -1  64 W7        30.43R WCI  -2
WOLF POINT     CLOUDY     9  -3  58 CALM      30.42S
MILES CITY     CLOUDY    20   8  60 CALM      30.35F
BAKER          CLOUDY    14   3  61 NW13      30.34S WCI   0
$$

CITY           SKY/WX    TMP DP  RH WIND       PRES   REMARKS
BILLINGS       CLOUDY    27  25  92 S12       30.27S WCI  17
GREAT FALLS    CLOUDY    21  17  84 E7        30.14F WCI  12
REGINA         FLURRIES   1  -4  78 W12       30.36R WCI -15
ESTEVAN        FLURRIES   7   0  72 W15       30.35R WCI -11
$$





USA.gov is the U.S. government's official web portal to all federal, state and local government web resources and services.